Location: Bannatyne
(13.0833°N, 59.5333°W)
Time: 01:21:37
(UTC+00:00)

deb Explorer IX - Pass Details

Date: 31 January 2020
Orbit: 549 x 1099 km, 38.8° (Epoch: 19 February)

Event Time Altitude Azimuth Distance (km) Brightness Sun altitude
Rises 05:47:49 0° 315° (NW) 3,900 - -66.4°
Reaches altitude 10° 05:50:41 10° 319° (NW) 2,936 - -65.7°
Maximum altitude 05:57:47 56° 36° (NE) 1,226 - -64.0°
Drops below altitude 10° 06:04:20 10° 114° (ESE) 2,712 - -62.5°
Sets 06:06:53 0° 118° (ESE) 3,585 - -61.8°
